OBJECT F

基本信息
目录编号:
47937
目录名称:
OBJECT F
国际标识:
2021-022F
轨道中心:
EARTH
物体状态:
在轨
发射日期:
2021-03-22 UTC
国别:
(TBD)
轨道信息
数据来源: 国际轨道数据
星历时间: 2026-09-02T23:12:53+0800
半长轴: 6841.617km
偏心率: 0.0009796
轨道倾角: 97.378°
近地点辐角: 163.179°
升交点赤经: 146.283°
平近点角: 196.978°
近地点: 456.777km
远地点: 470.183km
周期: 93.864分钟
每日圈数: 15.34139
详细信息
发射场:
TTMTR
轨道高度:
LEO
数据来源:
AOE Working Group
参考系:
TEME
时间系统:
UTC
历元类型:
SGP4
2D轨道图
3D轨道图
轨道高度分析图
轨道倾角分析图
轨道综合分析图
查看轨道综合分析图